Regional Weather Roundup
Issued by NWS Goodland, KS

Home | Current Version | Previous Version | Graphics & Text | Print | Product List | Glossary On
Versions: 1 2 3 4 5 6 7 8 9 10 11 12 13 14 15 16 17 18 19 20 21 22 23 24 25 26 27 28 29 30 31 32 33 34 35 36 37 38 39 40 41 42 43 44 45 46 47 48 49 50
000
ASUS43 KGLD 050108
RWRGLD

GOODLAND FORECAST AREA HOURLY WEATHER ROUNDUP
NATIONAL WEATHER SERVICE GOODLAND KS
700 PM MDT SAT JUL 04 2015

...OFFICIAL OBSERVATIONS...

CITY           SKY/WX    TMP DP  RH WIND       PRES   REMARKS
GOODLAND KS    SUNNY     87  61  41 SE18G29   29.87S
HILL CITY KS   SUNNY     90  62  39 SE15G24   29.86S
IMPERIAL NEB   MOSUNNY   91  60  35 SE16      29.83F
MCCOOK NEB     MOSUNNY   89  61  38 SE17      29.83F
AKRON CO       PTSUNNY   82  59  45 SE13      29.90R
BURLINGTON CO  SUNNY     89  59  36 SE18      29.90S
LIMON CO       PTSUNNY   79  60  52 S5        29.98R
$$

...UNOFFICIAL OBSERVATIONS...

CITY           SKY/WX    TMP DP  RH WIND       PRES   REMARKS
COLBY KS       SUNNY     90  64  43 SE16G26   29.89R
GOVE KS          N/A     90  32  12 MISG        N/A
NORTON KS      SUNNY     88  57  35 SE13      29.86S
SHARON SPRINGS   N/A     90  63  40 SE16G26     N/A
KIT CARSON CO    N/A     93  56  28 MISG        N/A
$$



USA.gov is the U.S. government's official web portal to all federal, state and local government web resources and services.